SES-8

Last updated on Jan. 15, 2021, 6:31 a.m. UTC

1 39460U 13071A   21014.93035743 -.00000276  00000-0  00000-0 0  9992
2 39460   0.0640 244.0644 0001044 108.1173 192.3279  1.00269878 24604
UTC
Height (km)
Latitude
Longitude
Inclination
Orbital Period
UTC large
Height (km)
Speed (km/s)
/
Latitude / Longitude
Inclination (degrees)
Orbital Period (minutes)
Azimuth
Elevation
Range (km)
Doppler Factor
iOS Compass Heading
iOS Angle

Next 30 passes for location: Hong Kong

Rise time Rise Azimuth (degrees) Set time Set Azimuth (degrees) Duration Max altitude (degrees)

No matching passes for this satellites